User: anonymous   Login
Location: �clusier
(49.9361°N, 2.7869°E)
Time: 09:56:14
(UTC+00:00)
Language:

Centaur D AC-29 - Orbit

View from above orbital plane
View from above orbital plane
View from above satellite
View from above satellite

Ground track
Ground track

The orbit data is extracted from the following two-line orbital elements,

1 06058U 72041B   21260.24446581  .00000011  00000-0  63534-3 0  9994
2 06058  26.7605  98.1578 7201295 203.1690  92.9414  2.22331518398806
Epoch (UTC): 17 September 2021 05:52:01
Eccentricity: 0.7201295
inclination: 26.7605°
perigee height: 562 km
apogee height: 36276 km
right ascension of ascending node: 98.1578°
argument of perigee: 203.1690°
revolutions per day: 2.22331518
mean anomaly at epoch: 92.9414°
orbit number at epoch: 39880

The dashed part of the orbit path shows where the satellite is in the earth's shadow,  

DLR